Hollywood, FL

9:36 PM EDT on May 23, 2017 (GMT -0400)
North Perry

Weather History for KHWO - December, 2012

Change the Weather History Date:

Monday, December 17, 2012

  Actual Average (KFLL) Record (KFLL)
Temperature  
Mean Temperature 72 °F -  
Max Temperature 82 °F 75 °F 87 °F (1956)
Min Temperature 63 °F 58 °F 34 °F (1968)
Cooling Degree Days 8    
Growing Degree Days 22 (Base 50)    
Moisture  
Dew Point 65 °F    
Average Humidity 80    
Maximum Humidity 100    
Minimum Humidity 52    
Precipitation  
Precipitation 0.00 in - - ()
Sea Level Pressure  
Sea Level Pressure 29.98 in    
Wind  
Wind Speed 2 mph (SW)    
Max Wind Speed 12 mph    
Max Gust Speed 17 mph    
Visibility 10 miles    
Events      
Averages and records for this station are not official NWS values.
T = Trace of Precipitation, MM = Missing Value Source: NWS Daily Summary

Daily Weather History Graph

Daily Weather History Graph

Search for Another Location

Airport or City:

Trip Planner

Search our weather history database for the weather conditions in past years. The results will help you decide how hot, cold, wet, or windy it might be!

Date:

Astronomy

Dec. 17, 2012 Rise Set
Actual Time 7:01 AM EST 5:32 PM EST
Civil Twilight 6:36 AM EST 5:58 PM EST
Nautical Twilight 6:07 AM EST 6:26 PM EST
Astronomical Twilight 5:39 AM EST 6:55 PM EST
Moon 10:32 AM EST (12/17) 10:26 PM EST (12/17)
Length of Visible Light 11h 21m
Length of Day
10h 31m
Waxing Crescent, 24% of the Moon is Illuminated
Dec 17
Waxing Crescent
Dec 20
First Quarter
Dec 28
Full
Jan 4
Last Quarter
Jan 11
New

Hourly Weather History & Observations

Time (EST) Temp. Heat Index Dew Point Humidity Pressure Visibility Wind Dir Wind Speed Gust Speed Precip Events Conditions
12:53 AM 68.0 °F - 64.9 °F 90% 30.00 in 10.0 mi Calm Calm - N/A   Clear
1:53 AM 66.9 °F - 64.9 °F 93% 30.00 in 10.0 mi Calm Calm - N/A   Clear
2:53 AM 66.0 °F - 64.9 °F 96% 29.99 in 10.0 mi Calm Calm - N/A   Clear
3:53 AM 64.9 °F - 64.0 °F 97% 29.98 in 10.0 mi Calm Calm - N/A   Clear
4:53 AM 64.0 °F - 63.0 °F 96% 29.99 in 10.0 mi Calm Calm - N/A   Clear
5:53 AM 63.0 °F - 63.0 °F 100% 29.98 in 10.0 mi Calm Calm - N/A   Clear
6:53 AM 64.0 °F - 62.1 °F 93% 29.99 in 10.0 mi Calm Calm - N/A   Clear
7:53 AM 66.0 °F - 64.0 °F 93% 29.99 in 10.0 mi Calm Calm - N/A   Clear
8:53 AM 71.1 °F - 66.9 °F 87% 30.00 in 10.0 mi Calm Calm - N/A   Clear
9:53 AM 77.0 °F - 66.9 °F 71% 30.00 in 10.0 mi South 4.6 mph - N/A   Clear
10:53 AM 79.0 °F - 66.0 °F 64% 30.00 in 10.0 mi SSW 11.5 mph 17.3 mph N/A   Clear
11:53 AM 82.0 °F 83.1 °F 63.0 °F 52% 29.97 in 10.0 mi SW 9.2 mph - N/A   Scattered Clouds
12:53 PM 81.0 °F 82.2 °F 63.0 °F 54% 29.94 in 10.0 mi SW 11.5 mph - N/A   Overcast
1:53 PM 80.1 °F 81.7 °F 64.0 °F 58% 29.92 in 10.0 mi Variable 5.8 mph - N/A   Mostly Cloudy
2:53 PM 79.0 °F - 66.9 °F 66% 29.92 in 10.0 mi South 10.4 mph - N/A   Overcast
3:53 PM 81.0 °F 83.3 °F 66.9 °F 62% 29.92 in 10.0 mi SW 9.2 mph - N/A   Scattered Clouds
4:53 PM 79.0 °F - 66.0 °F 64% 29.94 in 10.0 mi West 6.9 mph - N/A   Scattered Clouds
7:53 PM 73.9 °F - 66.0 °F 76% 29.99 in 10.0 mi WSW 5.8 mph - N/A   Clear
8:53 PM 72.0 °F - 66.9 °F 84% 29.99 in 10.0 mi Calm Calm - N/A   Clear
9:53 PM 72.0 °F - 66.9 °F 84% 30.00 in 10.0 mi Calm Calm - N/A   Clear
10:53 PM 70.0 °F - 66.9 °F 90% 30.00 in 10.0 mi Calm Calm - N/A   Clear
11:53 PM 70.0 °F - 66.9 °F 90% 29.99 in 10.0 mi Calm Calm - N/A   Clear